Location: Aalsum
(53.3404°N, 6.0062°E)
Time: 09:17:49
(UTC+00:00)

CZ-2C R/B - Pass Details

Date: 28 January 2023
Orbit: 784 x 869 km, 98.3° (Epoch: 19 March)

Event Time Altitude Azimuth Distance (km) Brightness Sun altitude
Rises 17:13:21 0° 11° (NNE) 3,392 5.6 -9.3°
Reaches altitude 10° 17:15:47 10° 6° (N) 2,467 4.9 -9.7°
Maximum altitude 17:20:58 45° 295° (WNW) 1,146 3.8 -10.4°
Drops below altitude 10° 17:26:13 10° 224° (SW) 2,497 6.2 -11.2°
Sets 17:28:41 0° 219° (SW) 3,437 6.8 -11.5°
